W1CPR-13 Weather Reports


time (UTC)temp
C
wind
direction
speed
KPH
gust
KPH
rain 1hr
cm
rain 24hr
cm
rain mn
cm
humidity
%
barometer
mb
20260505063030 12 184 0.0 9.7 0.00 0.00 0.00 70 1018.4
20260505061522 12 231 1.6 6.4 0.00 0.00 0.00 69 1018.5
20260505060017 12 222 3.2 12.9 0.00 0.00 0.00 67 1018.5
20260505054515 12 196 1.6 11.3 0.00 0.00 0.00 67 1018.6
20260505053012 12 196 3.2 11.3 0.00 0.00 0.00 66 1018.5
20260505051509 12 189 1.6 11.3 0.00 0.00 0.00 65 1018.5
20260505041611 13 202 3.2 11.3 0.00 0.00 0.00 61 1018.6
20260505040104 13 196 1.6 11.3 0.00 0.00 0.00 60 1018.6
20260505034557 13 173 4.8 16.1 0.00 0.00 0.00 59 1018.5
20260505033057 13 98 4.8 17.7 0.00 0.00 0.00 58 1018.5
20260505031604 13 222 6.4 24.1 0.00 0.00 0.00 57 1018.5
20260505030104 14 193 3.2 19.3 0.00 0.00 0.00 55 1018.5
20260505024603 14 200 4.8 16.1 0.00 0.00 0.00 54 1018.5
20260505023059 14 211 6.4 20.9 0.00 0.00 0.00 53 1018.6
20260505021557 15 198 3.2 11.3 0.00 0.00 0.00 51 1018.7
20260505014551 15 183 4.8 19.3 0.00 0.00 0.00 49 1018.4
20260505013050 15 225 9.7 20.9 0.00 0.00 0.00 48 1018.3
20260505011550 16 161 3.2 14.5 0.00 0.00 0.00 47 1018.0
20260505010106 16 194 1.6 11.3 0.00 0.00 0.00 47 1017.7
20260505004548 16 150 4.8 20.9 0.00 0.00 0.00 45 1017.5
20260505003051 17 180 3.2 17.7 0.00 0.00 0.00 45 1017.2
20260505001547 17 199 3.2 20.9 0.00 0.00 0.00 44 1016.7
20260505000053 17 196 3.2 16.1 0.00 0.00 0.00 43 1016.3
20260504234546 17 150 4.8 20.9 0.00 0.00 0.00 43 1016.1
20260504233051 18 202 4.8 14.5 0.00 0.00 0.00 41 1015.8
20260504231543 18 198 8.0 19.3 0.00 0.00 0.00 39 1015.5
20260504224558 20 213 9.7 27.4 0.00 0.00 0.00 34 1014.9
20260504223041 21 174 8.0 17.7 0.00 0.00 0.00 30 1014.7
20260504221540 21 186 4.8 16.1 0.00 0.00 0.00 30 1014.6
20260504220043 21 200 4.8 25.7 0.00 0.00 0.00 30 1014.8
20260504214544 21 220 4.8 24.1 0.00 0.00 0.00 30 1014.7
20260504213037 21 200 8.0 20.9 0.00 0.00 0.00 29 1014.8
20260504211537 21 203 3.2 17.7 0.00 0.00 0.00 29 1014.8
20260504210045 21 222 11.3 22.5 0.00 0.00 0.00 28 1014.7
20260504204538 21 217 9.7 19.3 0.00 0.00 0.00 27 1014.8
20260504203034 21 231 4.8 16.1 0.00 0.00 0.00 28 1014.8
20260504201532 21 220 11.3 22.5 0.00 0.00 0.00 27 1014.9
20260504200043 21 207 8.0 27.4 0.00 0.00 0.00 26 1015.0
20260504194530 21 192 11.3 32.2 0.00 0.00 0.00 26 1015.0
20260504193028 21 222 6.4 27.4 0.00 0.00 0.00 27 1015.1
20260504191527 21 214 6.4 25.7 0.00 0.00 0.00 27 1015.2
20260504190026 21 202 9.7 17.7 0.00 0.00 0.00 27 1015.2
20260504184532 21 223 11.3 27.4 0.00 0.00 0.00 28 1015.2
20260504183025 20 168 9.7 32.2 0.00 0.00 0.00 28 1015.5
20260504181518 20 224 8.0 33.8 0.00 0.00 0.00 29 1015.6
20260504180015 20 215 4.8 25.7 0.00 0.00 0.00 29 1015.8
20260504174513 20 225 11.3 32.2 0.00 0.00 0.00 28 1015.9
20260504173012 20 192 9.7 32.2 0.00 0.00 0.00 29 1016.1
20260504171509 20 228 9.7 33.8 0.00 0.00 0.00 30 1016.0
20260504160105 18 215 11.3 30.6 0.00 0.00 0.00 31 1016.6
20260504081543 7 194 3.2 9.7 0.00 0.03 0.00 55 1018.9